Regional Weather Roundup
Issued by NWS Mt. Holly, NJ

Home | Current Version | Previous Version | Text Only | Print | Product List | Glossary On
Versions: 1 2 3 4 5 6 7 8 9 10 11 12 13 14 15 16 17 18 19 20 21 22 23 24 25 26 27 28 29 30 31 32 33 34 35 36 37 38 39 40 41 42 43 44 45 46 47 48 49 50
000
ASUS41 KPHI 020210
RWRPHI

REGIONAL WEATHER ROUNDUP
NATIONAL WEATHER SERVICE MOUNT HOLLY NJ
900 PM EST SUN FEB 01 2015

NOTE:  "FAIR" INDICATES FEW OR NO CLOUDS BELOW 12,000 FEET WITH NO
SIGNIFICANT WEATHER AND/OR OBSTRUCTIONS TO VISIBILITY.

 * = STATION DOES NOT REPORT PRECIPITATION (E.G. RAIN, SNOW, ETC.)
        OR FOG.

NJZ015>026-020300-
SOUTHERN NEW JERSEY

CITY           SKY/WX    TMP DP  RH WIND       PRES   REMARKS
POMONA         CLOUDY    36  26  67 S8        30.06F WCI  30
RIO GRANDE*    CLOUDY    37  27  65 SE8       30.03F WCI  31
MILLVILLE      CLOUDY    34  25  69 E7        30.03F WCI  28
WRIGHTSTOWN    CLOUDY    32  23  69 SE3       30.03F
MOUNT HOLLY    CLOUDY    34  23  64 VRB3      30.05F
TRENTON        CLOUDY    34  26  72 E5        30.04F WCI  30

$$
NJZ001>014-020300-
NORTHERN NEW JERSEY

CITY           SKY/WX    TMP DP  RH WIND       PRES   REMARKS
SUSSEX         LGT SNOW  29  25  85 CALM      30.04F FOG
ANDOVER*         N/A     28  27  96 CALM      30.04F
MORRISTOWN     CLOUDY    32  27  80 CALM      30.09F
NEWARK         LGT SNOW  34  27  75 S3        30.09F
TETERBORO      FLURRIES  34  22  61 S8        30.08F WCI  27
CALDWELL       LGT SNOW  31  26  82 CALM      30.08F
SOMERVILLE     LGT SNOW  32  29  88 CALM      30.04F FOG
ALLAIRE*       CLOUDY    34  21  60 SE5       30.07F WCI  30
TOMS RIVER*    CLOUDY    34  25  69 E5        30.06F WCI  30

$$
PAZ043-044-047-054-055-060>062-066>071-020300-
EASTERN PENNSYLVANIA

CITY           SKY/WX    TMP DP  RH WIND       PRES   REMARKS
PHILADELPHIA   CLOUDY    36  21  54 SE8       30.04F WCI  30
NORTH PHILA    CLOUDY    36  23  59 SE7       30.06F WCI  30
BLUE BELL      CLOUDY    36  27  69 SE5       30.01F WCI  32
DOYLESTOWN     LGT SNOW  30  30 100 CALM      30.03F FOG
QUAKERTOWN*    CLOUDY    32  30  93 E5        30.02F VSB 1   WCI  27
POTTSTOWN      FLURRIES  32  27  81 E3        30.01F
LANCASTER      CLOUDY    33  24  69 SE10      29.98F WCI  25
COATESVILLE    CLOUDY    34  25  69 SE5       29.99F WCI  30
READING        CLOUDY    32  28  85 CALM      29.99F
ALLENTOWN      LGT SNOW  30  28  93 E6        30.01F VSB 3/4 WCI  24
MOUNT POCONO   LGT SNOW  25  22  88 SE9       29.92F FOG     WCI  15
HAZLETON       LGT SNOW  28  27  93 SE6       29.92F WCI  22
WILKES BARRE   LGT SNOW  29  24  82 N7        29.93F WCI  22

$$
DEZALL-MDZ008-012-015-019-020-020300-
DELAWARE AND EASTERN MARYLAND

CITY           SKY/WX    TMP DP  RH WIND       PRES   REMARKS
WILMINGTON     CLOUDY    35  22  58 SE8       30.03F WCI  29
DOVER          CLOUDY    35  28  76 SE8       30.03F WCI  28
GEORGETOWN     CLOUDY    36  25  64 SE5       30.02F WCI  32
EASTON         CLOUDY    39  27  60 SE8       30.03F WCI  34
PATUXENT       MIX PCPN  37  31  78 SE12      29.98F WCI  29
OCEAN CITY     MOCLDY    38  33  82 CALM      30.02F
WALLOPS ISLAND MOCLDY    39  35  86 S8        30.01F WCI  33
CAMBRIDGE      CLOUDY    37  27  65 SE8       29.99F WCI  31
SALISBURY      MOCLDY    39  28  64 SE7       30.01F WCI  34

$$
PAZ001-021-NYZ056-072-MDZ011-DCZ001-020300-
OTHER NEARBY LOCATIONS

CITY           SKY/WX    TMP DP  RH WIND       PRES   REMARKS
HARRISBURG     CLOUDY    32  25  75 SE10      29.96F WCI  24
STATE COLLEGE  CLOUDY    30  25  80 SE3       29.83F
WILLIAMSPORT   LGT SNOW  30  27  88 E15       29.90F FOG     WCI  19
BINGHAMTON     LGT SNOW  21  19  92 E9        29.90F FOG     WCI  11
NEW YORK CITY  CLOUDY    34  24  67 S5        30.10F HAZE    WCI  30
BALTIMORE      CLOUDY    36  23  59 SE3       29.98F
WASHINGTON DC  CLOUDY    40  24  53 SE5       29.98F

$$



USA.gov is the U.S. government's official web portal to all federal, state and local government web resources and services.